Regional Weather Roundup
Issued by NWS

Home | Current Version | Previous Version | Text Only | Print | Product List | Glossary Off
Versions: 1 2 3 4 5 6 7 8 9 10 11 12 13 14 15 16 17 18 19 20 21 22 23 24 25 26 27 28 29 30 31 32 33 34 35 36 37 38 39 40 41 42 43 44 45 46 47 48 49 50

853
ASUS43 KDMX 261801
RWRIA

WEATHER ROUNDUP FOR IOWA
NATIONAL WEATHER SERVICE DES MOINES IA
100 PM CDT WED JUL 26 2017

NOTE: "FAIR" INDICATES FEW OR NO CLOUDS BELOW 12,000 FEET WITH NO
SIGNIFICANT WEATHER AND/OR OBSTRUCTIONS TO VISIBILITY.

* - THESE STATIONS ARE NOT NWS STATIONS...THUS NOT UNDER NWS
QUALITY CONTROL.  THEY ALSO DO NOT REPORT WEATHER SUCH
AS PRECIPITATION OR FOG.

IAZ001>003-012>014-020>022-031>034-043>046-261900-
   NORTHWEST IOWA

CITY           SKY/WX    TMP DP  RH WIND       PRES   REMARKS
CARROLL *      LGT RAIN  72  70  94 NE6       30.01R
CHEROKEE *     CLOUDY    77  72  86 E6        30.01S
DENISON *      PTSUNNY   72  72 100 E5        30.02R FOG
ORANGE CITY *  SUNNY     81  70  69 E8        30.02S HX  84
SHELDON *      MOSUNNY   79  70  73 VRB5G13   30.01S HX  81
SIOUX CITY     CLOUDY    77  72  84 E8        30.01R
6HR MIN TEMP:  71; 6HR MAX TEMP:  77; 6HR PCP: TRACE;

SPENCER        CLOUDY    75  70  84 E8        30.02F
6HR MIN TEMP:  71; 6HR MAX TEMP:  75; 6HR PCP:  0.04;

STORM LAKE *     N/A     73  70  88 E13       30.03S
$$

IAZ055>058-069>071-079>083-090>094-261900-
   SOUTHWEST IOWA

CITY           SKY/WX    TMP DP  RH WIND       PRES   REMARKS
ATLANTIC *     PTSUNNY   75  73  94 S6        29.99S
AUDUBON *      CLOUDY    79  72  78 S5        30.01R HX  82
CLARINDA *     CLOUDY    77  75  94 CALM      30.01S
COUNCIL BLFS * CLOUDY    75  75 100 S7        29.99S
CRESTON *      CLOUDY    75  72  88 SE3       30.03S
HARLAN  *      CLOUDY    79  72  78 S10       30.03R HX  82
LAMONI         CLOUDY    79  71  76 S3        30.02F HX  82
6HR MIN TEMP:  73; 6HR MAX TEMP:  79; 6HR PCP:  0.01;

RED OAK *      CLOUDY    77  73  88 CALM      30.00R
SHENANDOAH *   CLOUDY    77  73  88 CALM      29.99R
$$

IAZ047>049-059>061-072>074-084-261900-
   CENTRAL IOWA

CITY           SKY/WX    TMP DP  RH WIND       PRES   REMARKS
AMES           PTSUNNY   79  74  84 NE8       30.00S HX  82
6HR MIN TEMP:  71; 6HR MAX TEMP:  79; 6HR PCP:  0.07;

ANKENY *       CLOUDY    79  73  83 SE6       30.02R HX  82
BOONE *        PTSUNNY   77  72  83 NE10      29.99F
CHARITON *     CLOUDY    81  72  74 W3        30.01F HX  84
DES MOINES     CLOUDY    79  73  82 E5        30.00S HX  82
6HR MIN TEMP:  75; 6HR MAX TEMP:  79; 6HR PCP:  0.05;

GRINNELL*      CLOUDY    79  72  77 W6        30.03S HX  83
KNOXVILLE *    CLOUDY    79  73  83 N7        30.00F HX  82
MARSHALLTOWN   CLOUDY    78  73  84 N9        29.99F HX  81
6HR MIN TEMP:  72; 6HR MAX TEMP:  79; 6HR PCP: TRACE;

NEWTON *       CLOUDY    79  72  78 W10       30.03R HX  82
PELLA *        CLOUDY    80  71  72 W9        30.03S HX  84
PERRY *          N/A     79  73  84 SE3       30.01R HX  82
$$

IAZ004>006-015-016-023>025-035-036-261900-
   NORTH CENTRAL IOWA

CITY           SKY/WX    TMP DP  RH WIND       PRES   REMARKS
ALGONA *       DRIZZLE   73  73 100 N5        30.04R
ESTHERVILLE    CLOUDY    74  70  87 S10       30.02F
6HR MIN TEMP:  70; 6HR MAX TEMP:  75; 6HR PCP:  0.07;

FORT DODGE *   CLOUDY    72  70  94 NE7       30.01S
MASON CITY     CLOUDY    74  70  87 E8        30.04F
6HR MIN TEMP:  71; 6HR MAX TEMP:  74; 6HR PCP:  0.37;

FOREST CITY *  DRIZZLE   73  72  94 NE3       30.02F
WEBSTER CITY * PTSUNNY   75  70  83 E13       29.99F
IOWA FALLS *   PTSUNNY   75  70  84 NE6       30.03F
$$

IAZ007>011-017>019-026>030-037>042-050>054-066-261900-
   NORTHEAST IOWA

CITY           SKY/WX    TMP DP  RH WIND       PRES   REMARKS
CEDAR RAPIDS   SUNNY     81  75  83 S7        30.00F HX  86
CHARLES CITY * RAIN      73  73 100 E6        30.04R
DECORAH *      PTSUNNY   73  72  94 CALM      30.03F
DUBUQUE        CLOUDY    77  73  87 SE5       30.04S
6HR MIN TEMP:  68; 6HR MAX TEMP:  78;

MONTICELLO *   CLOUDY    81  75  83 VRB3      30.01F HX  86
OELWEIN *      CLOUDY    77  73  88 CALM      30.02F
WATERLOO       LGT RAIN  76  70  82 N8        30.00F
6HR MIN TEMP:  71; 6HR MAX TEMP:  77; 6HR PCP: TRACE;

$$

IAZ064-065-067-068-078-261900-
   EAST CENTRAL IOWA

CITY           SKY/WX    TMP DP  RH WIND       PRES   REMARKS
DAVENPORT      CLOUDY    82  75  79 S5        30.04F HX  89
6HR MIN TEMP:  72; 6HR MAX TEMP:  82;

IOWA CITY      CLOUDY    84  74  71 S5        30.02F HX  91
6HR MIN TEMP:  72; 6HR MAX TEMP:  84;

MUSCATINE *    PTSUNNY   84  75  74 VRB5      30.01F HX  92
$$

IAZ062-063-075>077-085>089-095>099-261900-
   SOUTHEAST IOWA

CITY           SKY/WX    TMP DP  RH WIND       PRES   REMARKS
BURLINGTON     MOSUNNY   84  77  79 S3        30.01F HX  94
6HR MIN TEMP:  72; 6HR MAX TEMP:  84;

FAIRFIELD *    PTSUNNY   86  73  66 W5        30.00F HX  93
FORT MADISON * CLOUDY    84  75  74 S3        30.02F HX  92
KEOKUK *       CLOUDY    86  77  74 VRB6      30.01F HX  97
OSKALOOSA *      N/A     83  73  73 SW5       30.01F HX  89
OTTUMWA        PTSUNNY   84  73  69 W7        30.00F HX  90
6HR MIN TEMP:  73; 6HR MAX TEMP:  85;

WASHINGTON *   CLOUDY    84  77  79 SW6       30.02F HX  94
$$

ABBREVIATIONS USED IN REMARKS
   TC - TEMPERATURES IN CELSIUS
  WCI - WIND CHILL INDEX
   HX - HEAT INDEX
  VSB - VISIBILITY
$$





USA.gov is the U.S. government's official web portal to all federal, state and local government web resources and services.